Wind_Speed
26 13 6 7 28 41 47 52 23 37 36 22 26 18 16 17 18 20 22 17 19 21 19 22 20 21 25 28 28 26 20 20 22 23 23 24 27 28 29 30 30 31 32 34
36 30 13 11 9 9 33 49 38 25 15 16 33 36 33 32 30 26 25 20 20 24 24 23 22 22 25 29 30 26 20 20 22 23 23 25 27 28 28 28 29 31 32 34
14 28 17 13 22 17 17 16 27 38 36 28 27 27 27 29 33 31 28 27 27 25 23 24 25 25 28 31 32 27 22 22 23 24 24 26 27 27 27 27 28 30 31 33
6 14 7 20 27 27 26 27 22 26 24 22 24 27 29 34 38 36 34 33 31 27 27 25 26 29 32 32 34 29 25 24 25 24 25 27 26 27 25 26 28 29 30 33
8 11 9 9 16 21 27 30 36 36 31 25 25 25 29 31 30 31 32 28 27 25 25 24 26 29 32 34 35 29 27 26 26 25 27 25 24 25 24 25 27 28 30 32
7 4 4 6 10 12 12 21 15 25 18 19 21 26 28 27 28 30 29 30 26 28 27 27 27 30 31 32 31 29 29 28 28 26 26 22 23 23 24 24 25 26 28 31
18 5 3 10 9 5 15 11 4 10 14 17 23 25 22 19 20 22 25 28 27 25 27 25 24 26 28 29 28 29 30 29 27 26 22 20 22 22 22 23 24 25 26 29
14 11 5 12 6 4 11 9 11 12 14 16 21 20 16 16 20 19 18 20 19 22 22 24 26 26 27 28 30 30 29 28 24 22 18 20 21 21 21 22 23 24 25 27
11 12 19 17 13 11 6 13 17 15 12 13 18 21 17 11 13 15 14 15 17 18 19 21 24 26 28 27 26 27 27 23 21 18 16 19 20 20 19 21 22 23 24 25
15 16 22 26 16 22 17 14 4 15 12 12 13 20 22 23 20 14 13 16 18 21 23 23 25 25 21 20 21 24 22 20 17 14 17 19 18 18 19 20 21 23 24 25
18 18 19 19 26 29 28 26 24 2 13 11 11 10 18 20 19 16 17 17 18 21 21 23 23 24 23 20 23 21 19 17 13 13 17 18 17 18 19 20 20 22 24 26
24 28 31 23 24 30 32 33 31 21 9 17 14 13 15 18 21 22 20 20 23 25 26 27 27 26 27 23 20 17 15 12 11 14 15 16 17 18 18 20 21 22 24 26
30 30 30 33 35 35 34 32 30 28 19 16 24 19 18 23 25 29 30 29 29 31 32 33 32 29 25 19 17 14 10 11 12 13 13 13 14 16 21 22 21 21 22 24
34 35 36 35 37 29 32 29 31 28 23 18 15 13 21 27 23 26 30 35 32 32 33 31 26 21 19 17 14 13 11 11 12 12 11 11 12 13 14 15 18 20 22 22
32 34 39 37 32 31 29 26 24 28 26 22 17 19 23 23 23 23 26 28 28 28 28 24 20 19 18 15 13 11 9 10 11 10 10 10 11 12 14 15 15 16 19 21
30 29 30 31 30 29 24 19 22 21 25 24 20 23 26 25 25 25 25 25 24 24 22 20 20 18 15 13 10 8 9 9 9 9 9 10 11 12 14 15 16 17 19 20
27 22 21 23 24 24 24 24 23 19 21 24 18 14 15 19 20 22 22 22 21 20 19 20 17 15 14 11 8 9 10 8 8 7 8 9 10 12 13 14 15 17 19 21
19 18 16 14 14 15 14 14 14 11 10 11 8 6 7 11 13 18 18 17 18 20 19 18 17 15 12 9 9 9 8 6 6 7 8 9 10 11 12 13 14 15 17 20
26 19 11 7 5 4 2 2 2 2 3 5 7 10 13 15 15 17 18 19 19 18 17 17 15 12 10 8 7 7 6 6 6 7 8 8 10 11 12 13 15 16 18 19
26 27 26 24 22 19 17 18 18 16 17 17 15 15 15 15 14 15 16 17 18 18 16 14 11 9 7 6 6 6 6 6 6 7 7 8 9 11 12 13 15 16 18 20
22 22 22 22 21 20 20 19 16 17 18 16 11 11 12 14 15 15 16 16 16 15 12 10 8 6 6 6 6 6 6 7 7 7 7 8 10 11 12 14 15 17 18 19
18 18 18 17 15 15 14 13 12 13 14 12 11 11 11 12 13 14 14 14 11 10 8 6 5 6 6 6 7 7 7 8 7 8 8 9 11 12 13 14 15 17 19 20
14 14 14 12 11 11 10 9 11 11 9 7 7 8 9 9 9 10 9 7 7 6 4 5 7 7 7 7 8 9 9 9 9 9 10 11 12 13 14 15 16 18 19 21
12 12 11 10 11 10 7 8 8 7 7 7 7 7 6 6 5 5 4 3 2 3 6 8 8 8 8 9 10 10 10 10 11 11 11 12 13 14 15 16 17 19 20 21
8 10 11 12 11 10 9 9 8 8 7 6 5 5 4 3 2 0 2 4 5 7 8 9 9 10 11 11 11 11 12 12 12 13 13 14 14 15 16 17 18 19 20 20
10 10 10 9 8 7 6 6 5 5 4 4 3 2 2 3 3 4 6 6 7 8 9 10 11 12 12 12 12 13 13 14 14 14 15 15 15 16 16 17 18 19 19 20
11 11 11 10 9 8 7 6 5 5 5 4 4 4 5 5 6 6 7 8 9 10 11 11 12 13 13 13 14 14 15 15 15 16 16 16 16 16 17 17 18 18 18 19
Wind_Direction
211 219 210 249 237 228 215 228 224 242 236 226 221 230 248 261 267 264 266 261 250 247 246 243 244 241 238 235 226 230 245 266 268 271 271 279 292 296 298 300 303 306 309 313
202 223 226 234 249 258 237 234 234 236 237 243 235 244 255 260 263 261 261 261 270 257 249 245 249 248 246 239 227 233 247 263 269 272 272 283 292 295 297 300 304 306 309 315
217 208 203 255 239 246 254 250 241 238 249 251 249 248 251 252 258 258 262 266 273 263 245 241 245 244 244 236 226 233 245 261 269 271 273 285 291 293 296 300 304 306 310 316
225 184 219 260 276 263 251 258 260 264 264 267 269 260 259 255 258 261 262 262 262 255 246 247 250 247 243 231 226 230 243 259 267 269 275 286 289 292 296 300 303 307 312 316
212 184 246 251 244 242 237 262 252 265 268 279 276 273 265 260 254 250 252 255 255 254 250 250 250 248 241 233 229 234 246 258 265 267 277 282 288 292 297 300 305 310 313 318
188 153 167 294 269 253 215 250 273 248 250 260 267 263 266 264 258 252 247 251 257 262 256 250 249 242 234 231 231 239 248 257 261 268 277 283 287 291 297 301 306 310 316 319
256 227 227 303 245 221 205 319 312 239 266 268 262 259 267 256 257 254 250 257 263 260 255 249 243 238 231 230 233 240 245 255 262 273 278 283 286 292 297 303 308 314 319 320
243 226 254 337 162 214 268 212 229 251 261 260 262 254 249 240 245 249 252 254 256 251 241 241 231 229 229 228 234 242 253 258 270 274 277 283 288 293 299 304 311 317 320 321
348 336 341 11 41 15 329 240 207 185 212 250 260 268 265 246 240 247 251 247 231 226 223 225 225 221 223 234 243 252 255 267 271 271 277 283 288 295 302 308 314 317 319 320
329 321 331 332 335 345 5 10 262 208 201 233 250 272 272 271 256 249 247 238 230 223 210 212 218 220 224 238 253 255 263 265 265 269 277 283 289 295 303 309 314 318 319 318
295 300 314 321 331 331 344 335 332 3 224 218 230 260 276 277 267 254 249 237 223 210 209 213 218 219 221 234 244 254 256 255 260 269 277 283 290 300 308 311 316 318 318 323
292 305 304 320 323 322 320 325 335 339 307 260 249 259 278 278 283 260 244 234 214 206 207 218 222 227 228 233 242 242 245 251 259 267 276 286 298 305 310 314 320 322 326 330
291 288 291 299 308 317 313 309 319 329 323 292 252 246 261 271 274 250 241 227 221 218 216 218 217 218 222 230 234 237 235 247 260 268 276 289 300 311 318 319 319 324 329 329
286 286 286 293 301 298 304 305 307 324 309 301 257 243 263 275 262 247 234 224 220 221 221 215 214 218 223 222 223 223 227 245 257 266 278 289 297 301 303 308 313 320 325 328
292 294 298 299 302 306 306 302 297 299 314 297 276 258 260 259 242 237 228 219 220 209 206 211 212 214 216 211 209 215 230 246 255 267 281 289 295 302 307 309 311 315 321 327
299 292 289 289 288 293 301 292 292 280 302 298 285 269 261 246 234 219 209 205 205 204 205 207 210 208 202 190 190 213 236 250 263 275 284 294 305 312 314 317 320 324 327 330
296 289 277 276 283 282 281 290 290 285 295 289 282 279 264 242 220 205 195 190 190 194 201 201 200 192 183 177 194 221 239 250 262 278 293 303 310 314 316 320 326 330 335 338
339 321 309 296 285 283 281 283 276 280 282 273 263 245 222 206 196 191 188 191 192 195 196 188 179 171 169 184 208 227 241 253 270 285 295 307 315 318 323 328 332 335 338 342
31 31 25 11 0 6 351 288 246 119 138 148 144 151 152 158 169 179 181 185 188 185 181 176 167 162 181 199 216 230 242 258 272 287 302 311 317 325 331 334 337 340 342 342
33 39 48 56 63 73 82 89 93 105 109 112 118 138 150 156 166 179 180 182 178 170 165 157 161 174 188 210 225 234 248 264 278 293 307 316 322 329 332 337 342 345 343 341
31 38 42 47 56 67 74 82 90 95 98 98 117 142 154 160 164 171 174 177 172 161 153 158 169 184 206 223 234 244 256 267 280 293 303 312 320 327 333 337 339 341 342 343
30 34 40 46 52 59 72 82 93 97 99 117 137 147 155 164 167 176 176 156 147 148 156 166 189 210 223 233 241 251 261 270 280 290 299 308 316 322 326 330 333 334 336 339
35 36 38 44 55 59 62 80 83 87 98 117 134 146 151 154 160 154 141 141 150 151 173 208 223 231 238 244 251 258 265 272 280 289 298 305 311 316 320 324 328 331 331 332
23 29 32 34 46 50 55 69 83 101 121 131 134 140 143 133 123 119 120 143 168 212 230 234 238 243 249 253 258 263 268 273 280 288 296 302 307 311 318 323 325 325 326 328
359 2 5 7 11 12 22 28 34 37 42 43 43 45 47 48 50 341 253 247 243 241 246 250 253 253 254 257 262 266 270 274 281 287 293 299 305 312 315 317 319 321 320 323
340 343 343 342 341 343 346 347 347 348 351 348 339 321 301 284 272 264 261 259 257 256 255 255 255 257 260 264 266 268 271 274 280 284 289 296 302 308 310 314 316 316 319 322
321 324 327 330 331 331 331 329 326 321 313 304 296 288 282 278 275 271 268 265 263 261 260 259 260 261 263 264 266 267 268 272 276 282 287 293 299 304 307 308 310 313 317 321
Height
2913 2915 2921 2926 2927 2930 2933 2930 2937 2939 2942 2946 2949 2951 2952 2954 2956 2958 2961 2964 2967 2968 2970 2973 2975 2977 2979 2981 2984 2986 2988 2990 2991 2992 2992 2992 2991 2988 2986 2983 2979 2974 2970 2965
2904 2910 2917 2921 2924 2926 2927 2928 2933 2936 2937 2942 2945 2945 2947 2949 2950 2953 2956 2958 2960 2961 2963 2965 2968 2971 2973 2975 2976 2979 2981 2983 2984 2985 2985 2985 2983 2981 2979 2975 2972 2967 2963 2959
2901 2908 2908 2918 2916 2921 2923 2924 2927 2928 2931 2939 2939 2940 2942 2944 2944 2947 2950 2951 2953 2954 2956 2958 2960 2963 2965 2967 2969 2972 2974 2976 2977 2978 2978 2977 2976 2974 2972 2969 2965 2961 2956 2952
2898 2903 2906 2904 2907 2912 2915 2917 2919 2920 2924 2928 2930 2933 2935 2935 2936 2940 2942 2943 2945 2947 2949 2951 2954 2956 2957 2960 2963 2964 2968 2969 2970 2970 2970 2969 2968 2967 2965 2962 2958 2955 2950 2945
2896 2896 2898 2898 2900 2904 2904 2904 2911 2913 2917 2920 2923 2924 2923 2924 2927 2931 2932 2935 2937 2939 2942 2944 2946 2948 2951 2953 2957 2959 2962 2963 2963 2962 2962 2962 2961 2960 2958 2955 2951 2948 2943 2938
2890 2890 2896 2900 2900 2900 2902 2901 2906 2906 2909 2912 2915 2912 2914 2918 2919 2921 2924 2927 2929 2932 2935 2937 2939 2941 2943 2947 2951 2953 2956 2956 2955 2955 2955 2955 2954 2953 2951 2948 2945 2942 2936 2931
2886 2889 2894 2894 2895 2897 2901 2908 2904 2903 2906 2907 2904 2905 2907 2910 2911 2913 2917 2920 2922 2924 2926 2929 2931 2934 2937 2941 2944 2947 2947 2947 2947 2948 2948 2949 2948 2946 2944 2941 2939 2935 2931 2925
2886 2890 2893 2892 2893 2897 2898 2896 2897 2899 2899 2898 2898 2899 2901 2903 2904 2906 2908 2911 2913 2915 2918 2921 2924 2926 2930 2934 2937 2938 2939 2940 2941 2942 2942 2942 2941 2940 2938 2935 2932 2928 2925 2920
2898 2896 2894 2895 2891 2892 2891 2891 2890 2887 2891 2894 2895 2896 2896 2897 2898 2899 2901 2903 2905 2907 2910 2914 2918 2921 2924 2927 2930 2932 2933 2935 2935 2936 2936 2936 2935 2934 2932 2929 2925 2922 2918 2914
2894 2893 2890 2887 2889 2889 2886 2883 2882 2882 2882 2887 2888 2891 2891 2892 2895 2895 2895 2897 2898 2901 2904 2907 2911 2914 2919 2922 2925 2926 2928 2929 2929 2930 2931 2930 2929 2928 2925 2923 2919 2916 2912 2909
2888 2888 2889 2885 2883 2880 2878 2877 2876 2872 2876 2878 2881 2883 2886 2887 2890 2891 2891 2891 2893 2896 2899 2902 2906 2909 2912 2916 2918 2920 2922 2923 2924 2925 2925 2924 2923 2921 2919 2916 2914 2911 2907 2903
2882 2881 2877 2878 2877 2875 2874 2873 2870 2869 2870 2872 2874 2877 2880 2882 2883 2885 2885 2886 2888 2890 2892 2896 2899 2903 2907 2910 2912 2915 2916 2918 2920 2920 2919 2918 2916 2915 2913 2910 2908 2905 2900 2895
2879 2879 2876 2873 2873 2871 2870 2870 2869 2866 2866 2867 2869 2871 2875 2876 2877 2877 2878 2879 2882 2884 2885 2889 2893 2896 2900 2904 2907 2910 2912 2914 2915 2916 2915 2914 2913 2909 2905 2903 2902 2899 2896 2892
2875 2872 2873 2873 2868 2869 2867 2867 2864 2863 2863 2864 2863 2863 2866 2867 2865 2867 2868 2870 2873 2876 2880 2884 2888 2893 2897 2900 2903 2906 2908 2910 2911 2911 2910 2909 2908 2907 2905 2902 2899 2895 2891 2889
2871 2867 2861 2863 2863 2861 2858 2857 2857 2860 2860 2857 2856 2857 2859 2860 2860 2862 2863 2865 2868 2872 2876 2880 2885 2889 2892 2895 2899 2901 2904 2906 2907 2906 2906 2905 2904 2902 2900 2898 2896 2894 2890 2885
2860 2858 2856 2855 2857 2855 2853 2854 2853 2851 2852 2852 2852 2852 2854 2855 2857 2858 2859 2862 2866 2870 2874 2878 2882 2885 2889 2892 2895 2899 2901 2902 2902 2902 2902 2901 2899 2897 2895 2893 2891 2888 2885 2881
2851 2852 2850 2849 2847 2847 2847 2845 2845 2844 2845 2846 2846 2846 2849 2851 2853 2856 2859 2862 2865 2868 2872 2876 2880 2883 2887 2890 2893 2896 2897 2898 2898 2898 2898 2897 2895 2894 2892 2889 2886 2883 2880 2876
2848 2844 2841 2839 2838 2838 2837 2837 2838 2838 2839 2840 2840 2842 2845 2850 2853 2857 2860 2863 2866 2868 2871 2875 2878 2881 2885 2888 2891 2893 2894 2894 2895 2895 2894 2893 2892 2891 2888 2886 2883 2880 2876 2873
2851 2845 2841 2836 2834 2834 2835 2834 2833 2836 2838 2838 2839 2843 2847 2851 2855 2860 2861 2864 2866 2869 2871 2874 2877 2880 2885 2887 2889 2890 2891 2891 2892 2892 2891 2890 2889 2887 2885 2883 2879 2876 2873 2870
2857 2851 2847 2843 2840 2839 2838 2837 2838 2842 2840 2841 2843 2849 2853 2855 2858 2863 2864 2866 2867 2869 2871 2874 2877 2881 2883 2886 2887 2888 2889 2889 2889 2889 2888 2887 2886 2884 2882 2879 2876 2873 2870 2866
2864 2859 2856 2853 2849 2848 2846 2846 2848 2847 2845 2845 2852 2857 2859 2859 2860 2863 2866 2867 2868 2870 2872 2875 2878 2880 2882 2884 2885 2886 2886 2886 2886 2886 2885 2885 2883 2881 2879 2876 2873 2871 2868 2864
2869 2866 2863 2860 2859 2857 2856 2855 2856 2854 2851 2855 2860 2861 2862 2862 2862 2866 2867 2868 2869 2871 2872 2876 2878 2880 2881 2882 2883 2884 2883 2884 2884 2883 2882 2881 2880 2878 2876 2874 2871 2868 2865 2861
2876 2873 2870 2868 2867 2865 2865 2863 2859 2857 2859 2862 2864 2865 2864 2862 2865 2866 2867 2868 2871 2870 2873 2876 2878 2879 2879 2880 2881 2881 2881 2882 2881 2881 2880 2879 2877 2875 2873 2870 2867 2865 2862 2859
2879 2877 2876 2874 2871 2870 2868 2865 2864 2865 2866 2866 2865 2865 2866 2865 2865 2866 2867 2870 2869 2870 2873 2875 2876 2876 2877 2878 2878 2878 2879 2879 2878 2877 2876 2875 2873 2871 2869 2866 2864 2862 2859 2855
2881 2879 2876 2874 2872 2871 2869 2867 2866 2865 2865 2864 2863 2863 2863 2865 2866 2867 2868 2869 2870 2871 2872 2873 2874 2874 2875 2875 2875 2875 2875 2875 2874 2873 2872 2871 2869 2867 2865 2863 2861 2858 2856 2852
2880 2878 2877 2875 2874 2873 2871 2869 2868 2867 2866 2865 2865 2865 2865 2866 2866 2867 2867 2868 2868 2869 2870 2870 2871 2872 2871 2870 2870 2871 2871 2870 2869 2869 2868 2866 2865 2862 2861 2859 2857 2855 2852 2849
2878 2876 2874 2873 2872 2871 2870 2869 2868 2867 2866 2866 2865 2865 2864 2864 2864 2864 2865 2865 2866 2866 2867 2867 2867 2867 2866 2866 2866 2866 2866 2865 2864 2864 2863 2862 2860 2858 2857 2855 2853 2851 2848 2845